North Head Observation History
Time Wind Speed Temp Pressure Rel. Hum Rain
04/08:00am W 10-15 kts n/a n/a n/a n/a
04/07:30am WSW 9-13 kts n/a n/a n/a n/a
04/07:00am WSW 9-14 kts n/a n/a n/a n/a
04/06:30am WSW 10-16 kts n/a n/a n/a n/a
04/06:00am WSW 11-17 kts n/a n/a n/a n/a
04/05:30am WSW 10-17 kts n/a n/a n/a n/a
04/05:00am WSW 10-15 kts n/a n/a n/a n/a
04/04:30am WSW 12-17 kts n/a n/a n/a n/a
04/04:00am W 10-16 kts n/a n/a n/a n/a
04/03:30am WSW 11-17 kts n/a n/a n/a n/a
04/03:00am WSW 10-16 kts n/a n/a n/a n/a
04/02:30am WSW 12-18 kts n/a n/a n/a n/a
04/02:00am SW 12-21 kts n/a n/a n/a n/a
04/01:30am WSW 13-20 kts n/a n/a n/a n/a
04/01:00am SW 12-18 kts n/a n/a n/a n/a
04/12:30am SW 13-19 kts n/a n/a n/a n/a
04/12:00am SW 12-20 kts n/a n/a n/a n/a
Time Wind Speed Temp Pressure Rel. Hum Rain
03/11:30pm SW 12-20 kts n/a n/a n/a n/a
03/11:00pm SW 11-17 kts n/a n/a n/a n/a
03/10:30pm SW 11-17 kts n/a n/a n/a n/a
03/10:00pm SW 11-17 kts n/a n/a n/a n/a
03/09:30pm SW 12-21 kts n/a n/a n/a n/a
03/09:00pm SW 11-18 kts n/a n/a n/a n/a
03/08:30pm SW 12-21 kts n/a n/a n/a n/a
03/08:00pm SSW 11-19 kts n/a n/a n/a n/a
03/07:30pm S 11-23 kts n/a n/a n/a n/a
03/07:00pm S 14-25 kts n/a n/a n/a n/a
03/06:31pm S 15-28 kts n/a n/a n/a n/a
03/06:30pm S 14-28 kts n/a n/a n/a n/a
03/06:00pm SSW 11-21 kts n/a n/a n/a n/a
03/05:30pm SSW 10-17 kts n/a n/a n/a n/a
03/05:08pm S 15-27 kts n/a n/a n/a n/a
03/05:00pm S 13-23 kts n/a n/a n/a n/a
03/04:32pm S 15-25 kts n/a n/a n/a n/a
03/04:30pm S 14-23 kts n/a n/a n/a n/a
03/04:00pm S 16-25 kts n/a n/a n/a n/a
03/03:30pm S 15-25 kts n/a n/a n/a n/a
03/03:27pm S 15-25 kts n/a n/a n/a n/a
03/03:00pm S 15-25 kts n/a n/a n/a n/a
03/02:30pm S 13-23 kts n/a n/a n/a n/a
03/02:00pm S 12-19 kts n/a n/a n/a n/a
03/01:30pm S 14-22 kts n/a n/a n/a n/a
03/01:00pm SSW 12-20 kts n/a n/a n/a n/a
03/12:30pm SW 12-21 kts n/a n/a n/a n/a
03/12:00pm SW 12-21 kts n/a n/a n/a n/a
03/11:30am SSW 13-22 kts n/a n/a n/a n/a
03/11:00am WSW 9-15 kts n/a n/a n/a n/a
03/10:30am WSW 12-19 kts n/a n/a n/a n/a
03/10:00am WSW 13-22 kts n/a n/a n/a n/a
03/09:30am WSW 14-21 kts n/a n/a n/a n/a
03/09:01am WSW 15-25 kts n/a n/a n/a n/a
03/09:00am WSW 14-25 kts n/a n/a n/a n/a
03/08:30am W 12-19 kts n/a n/a n/a n/a
03/08:00am W 10-15 kts n/a n/a n/a n/a
03/07:30am W 11-17 kts n/a n/a n/a n/a
03/07:00am W 10-15 kts n/a n/a n/a n/a
03/06:30am WNW 9-13 kts n/a n/a n/a n/a
03/06:00am W 12-19 kts n/a n/a n/a n/a
03/05:30am W 14-21 kts n/a n/a n/a n/a
03/05:00am W 14-24 kts n/a n/a n/a n/a
03/04:30am W 14-21 kts n/a n/a n/a n/a
03/04:00am W 13-19 kts n/a n/a n/a n/a
03/03:30am W 13-18 kts n/a n/a n/a n/a
03/03:00am W 10-15 kts n/a n/a n/a n/a
03/02:30am WNW 8-13 kts n/a n/a n/a n/a
03/02:00am W 10-15 kts n/a n/a n/a n/a
03/01:30am W 9-13 kts n/a n/a n/a n/a
03/01:00am WNW 9-11 kts n/a n/a n/a n/a
03/12:30am WNW 8-11 kts n/a n/a n/a n/a
03/12:00am W 10-13 kts n/a n/a n/a n/a
Time Wind Speed Temp Pressure Rel. Hum Rain
02/11:30pm W 9-13 kts n/a n/a n/a n/a
02/11:00pm W 11-18 kts n/a n/a n/a n/a
02/10:30pm W 11-18 kts n/a n/a n/a n/a
02/10:00pm W 10-15 kts n/a n/a n/a n/a
02/09:30pm WNW 9-14 kts n/a n/a n/a n/a
02/09:00pm W 11-16 kts n/a n/a n/a n/a
02/08:30pm W 12-19 kts n/a n/a n/a n/a
02/08:00pm W 11-16 kts n/a n/a n/a n/a
02/07:30pm W 15-23 kts n/a n/a n/a n/a
02/07:00pm W 13-20 kts n/a n/a n/a n/a
02/06:30pm W 12-19 kts n/a n/a n/a n/a
02/06:04pm W 15-26 kts n/a n/a n/a n/a
02/06:00pm W 15-22 kts n/a n/a n/a n/a
02/05:32pm W 15-27 kts n/a n/a n/a n/a
02/05:30pm W 15-23 kts n/a n/a n/a n/a
02/05:00pm W 15-24 kts n/a n/a n/a n/a
02/04:42pm W 15-26 kts n/a n/a n/a n/a
02/04:30pm W 14-24 kts n/a n/a n/a n/a
02/04:00pm W 15-24 kts n/a n/a n/a n/a
02/03:30pm W 10-16 kts n/a n/a n/a n/a
02/03:00pm WSW 11-18 kts n/a n/a n/a n/a
02/02:30pm WSW 9-13 kts n/a n/a n/a n/a
02/02:00pm WSW 10-14 kts n/a n/a n/a n/a
02/01:30pm WSW 12-18 kts n/a n/a n/a n/a
02/01:00pm WSW 16-25 kts n/a n/a n/a n/a
02/12:54pm WSW 15-25 kts n/a n/a n/a n/a
02/12:30pm W 12-19 kts n/a n/a n/a n/a
02/12:00pm W 14-26 kts n/a n/a n/a n/a
02/11:47am W 15-25 kts n/a n/a n/a n/a
02/11:30am W 14-23 kts n/a n/a n/a n/a
02/11:00am WNW 11-18 kts n/a n/a n/a n/a
02/10:30am WNW 9-16 kts n/a n/a n/a n/a
02/10:00am WNW 6-11 kts n/a n/a n/a n/a
02/09:30am WNW 6-9 kts n/a n/a n/a n/a
02/09:00am WNW 8-12 kts n/a n/a n/a n/a
02/08:30am W 11-17 kts n/a n/a n/a n/a
02/08:00am W 9-15 kts n/a n/a n/a n/a
02/07:30am W 11-15 kts n/a n/a n/a n/a
02/07:00am W 13-21 kts n/a n/a n/a n/a
02/06:30am W 11-17 kts n/a n/a n/a n/a
02/06:00am W 12-22 kts n/a n/a n/a n/a
02/05:30am W 12-17 kts n/a n/a n/a n/a
02/05:00am W 12-17 kts n/a n/a n/a n/a
02/04:30am W 11-17 kts n/a n/a n/a n/a
02/04:00am WNW 10-15 kts n/a n/a n/a n/a
02/03:30am WNW 10-17 kts n/a n/a n/a n/a
02/03:00am WNW 9-15 kts n/a n/a n/a n/a
02/02:30am NW 9-16 kts n/a n/a n/a n/a
02/02:00am WNW 9-15 kts n/a n/a n/a n/a
02/01:30am WNW 7-13 kts n/a n/a n/a n/a
02/01:00am NW 8-13 kts n/a n/a n/a n/a
02/12:30am WNW 10-15 kts n/a n/a n/a n/a
02/12:00am WNW 9-15 kts n/a n/a n/a n/a